Location: Newark
(52.2090°N, 4.1550°W)
Time: 10:45:04
(UTC+00:00)

Transit 2A - Pass Details

Date: 28 October 2019
Orbit: 601 x 957 km, 66.7° (Epoch: 13 November)

Event Time Altitude Azimuth Distance (km) Brightness Sun altitude
Rises 19:13:29 0° 243° (WSW) 3,226 10.1 -21.6°
Reaches altitude 10° 19:16:07 10° 251° (WSW) 2,242 9.3 -22.0°
Maximum altitude 19:20:51 39° 320° (NW) 1,035 7.0 -22.7°
Enters shadow 19:23:44 19° 19° (NNE) 1,558 7.5 -23.1°
